Weather History for Logan, UT

Change the Weather History Date:

Friday, August 29, 2014

  Actual Average Record
Temperature  
Mean Temperature 68 °F -  
Max Temperature 86 °F 84 °F 96 °F (1981)
Min Temperature 51 °F 49 °F 34 °F (1964)
Cooling Degree Days 2    
Growing Degree Days 18 (Base 50)    
Moisture  
Dew Point 50 °F    
Average Humidity 59    
Maximum Humidity 93    
Minimum Humidity 25    
Precipitation  
Precipitation 0.00 in - - ()
Sea Level Pressure  
Sea Level Pressure 29.92 in    
Wind  
Wind Speed 4 mph (NNW)    
Max Wind Speed 7 mph    
Max Gust Speed -    
Visibility 10 miles    
Events      
Averages and records for this station are not official NWS values.
T = Trace of Precipitation, MM = Missing Value Source: NWS Daily Summary

Daily Weather History Graph

Daily Weather History Graph

Search for Another Location

Airport:

Trip Planner

Search our weather history database for the weather conditions in past years. The results will help you decide how hot, cold, wet, or windy it might be!

Date:

Astronomy

Aug. 29, 2014 Rise Set
Actual Time 6:50 AM MDT 8:05 PM MDT
Civil Twilight 6:21 AM MDT 8:34 PM MDT
Nautical Twilight 5:46 AM MDT 9:08 PM MDT
Astronomical Twilight 5:10 AM MDT 9:44 PM MDT
Moon 10:47 AM MDT (8/29) 10:01 PM MDT (8/29)
Length of Visible Light 14h 12m
Length of Day
13h 15m
Waxing Crescent, 15% of the Moon is Illuminated
Aug 29
Waxing Crescent
Sep 2
First Quarter
Sep 8
Full
Sep 15
Last Quarter
Sep 24
New

Hourly Weather History & Observations

Time (MDT) Temp. Dew Point Humidity Pressure Visibility Wind Dir Wind Speed Gust Speed Precip Events Conditions
12:51 AM 59.0 °F 52.0 °F 78% 29.96 in 10.0 mi East 3.5 mph - N/A   Clear
1:51 AM 59.0 °F 50.0 °F 72% 29.96 in 10.0 mi Variable 3.5 mph - N/A   Clear
2:51 AM 55.0 °F 51.1 °F 86% 29.97 in 10.0 mi East 4.6 mph - N/A   Clear
3:51 AM 54.0 °F 50.0 °F 86% 29.98 in 10.0 mi North 4.6 mph - N/A   Clear
4:51 AM 53.1 °F 50.0 °F 89% 29.97 in 10.0 mi Calm Calm - N/A   Clear
5:51 AM 53.1 °F 51.1 °F 93% 29.97 in 10.0 mi WSW 4.6 mph - N/A   Clear
6:51 AM 51.1 °F 48.0 °F 89% 29.98 in 10.0 mi North 5.8 mph - N/A   Partly Cloudy
9:51 AM 64.0 °F 52.0 °F 65% 30.00 in 10.0 mi North 4.6 mph - N/A   Clear
10:51 AM 70.0 °F 51.1 °F 51% 29.98 in 10.0 mi North 6.9 mph - N/A   Clear
12:51 PM 78.1 °F 52.0 °F 40% 29.95 in 10.0 mi Variable 4.6 mph - N/A   Clear
1:51 PM 81.0 °F 48.0 °F 31% 29.92 in 10.0 mi SW 4.6 mph - N/A   Clear
2:51 PM 84.0 °F 46.0 °F 26% 29.90 in 10.0 mi WSW 5.8 mph - N/A   Scattered Clouds
4:51 PM 84.9 °F 45.0 °F 25% 29.86 in 10.0 mi West 4.6 mph - N/A   Clear
5:51 PM 84.0 °F 45.0 °F 25% 29.85 in 10.0 mi SSW 3.5 mph - N/A   Clear
6:51 PM 82.9 °F 46.0 °F 27% 29.84 in 10.0 mi Calm Calm - N/A   Clear
7:51 PM 77.0 °F 54.0 °F 45% 29.84 in 10.0 mi East 6.9 mph - N/A   Clear
9:51 PM 72.0 °F 50.0 °F 46% 29.84 in 10.0 mi SSE 6.9 mph - N/A   Clear
10:51 PM 66.0 °F 53.1 °F 63% 29.83 in 10.0 mi Calm Calm - N/A   Clear
11:51 PM 60.1 °F 55.9 °F 86% 29.83 in 10.0 mi North 6.9 mph - N/A   Clear